Temp
-12 -12 -12 -11 -11 -11 -11 -10 -10 -10 -10 -10 -11 -11 -12 -12 -12 -12 -12 -12 -12 -11 -11 -11 -11 -11 -11 -11 -11 -11 -11 -10 -10 -10 -10 -10 -10 -10 -10 -10 -11 -11 -12 -12 -12 -12 -12 -11 -11 -11 -11 -11 -11 -11
-12 -12 -12 -12 -12 -12 -12 -12 -11 -11 -12 -12 -13 -12 -13 -13 -13 -13 -13 -13 -12 -12 -12 -12 -12 -12 -12 -11 -11 -11 -11 -11 -11 -11 -11 -11 -11 -10 -11 -11 -12 -12 -12 -12 -12 -12 -12 -12 -12 -12 -12 -12 -12 -12
-13 -13 -13 -13 -12 -12 -13 -13 -13 -13 -14 -14 -14 -14 -14 -14 -14 -13 -13 -13 -13 -13 -12 -12 -12 -12 -12 -12 -12 -12 -12 -12 -12 -12 -12 -12 -13 -13 -13 -13 -13 -13 -13 -13 -13 -12 -12 -12 -12 -13 -13 -12 -13 -13
-13 -13 -13 -13 -13 -13 -13 -13 -13 -14 -14 -14 -14 -14 -14 -14 -14 -13 -13 -13 -13 -13 -13 -12 -12 -12 -12 -13 -12 -13 -13 -13 -13 -13 -13 -14 -14 -14 -14 -13 -13 -14 -14 -13 -13 -13 -13 -13 -13 -13 -13 -14 -14 -14
-13 -14 -14 -14 -13 -13 -13 -13 -14 -14 -14 -14 -14 -14 -13 -13 -13 -13 -13 -13 -13 -13 -13 -13 -13 -13 -13 -13 -14 -14 -14 -14 -14 -14 -15 -15 -15 -15 -14 -14 -15 -15 -14 -14 -13 -13 -13 -13 -14 -14 -14 -14 -15 -14
-14 -14 -14 -14 -14 -14 -14 -14 -14 -14 -14 -14 -14 -13 -13 -13 -13 -13 -13 -13 -13 -13 -14 -14 -14 -14 -14 -14 -15 -15 -15 -15 -16 -16 -16 -16 -17 -16 -15 -15 -16 -17 -15 -15 -14 -15 -14 -15 -15 -15 -15 -15 -15 -15
-15 -15 -15 -15 -14 -14 -14 -14 -14 -14 -14 -14 -14 -14 -14 -14 -14 -14 -14 -14 -14 -14 -14 -14 -14 -15 -15 -16 -16 -17 -17 -17 -17 -17 -17 -17 -17 -17 -16 -15 -17 -17 -16 -16 -15 -15 -15 -15 -15 -16 -15 -15 -15 -15
-17 -16 -16 -15 -15 -15 -15 -15 -14 -14 -14 -14 -14 -14 -14 -14 -14 -14 -14 -15 -15 -15 -15 -15 -16 -16 -16 -17 -17 -17 -17 -18 -18 -18 -18 -17 -17 -17 -17 -17 -17 -17 -17 -16 -16 -15 -15 -15 -15 -16 -16 -15 -15 -15
-16 -16 -16 -15 -16 -16 -16 -15 -15 -15 -15 -15 -15 -15 -15 -15 -15 -15 -15 -15 -15 -16 -16 -16 -17 -17 -17 -17 -17 -17 -18 -17 -17 -18 -18 -18 -18 -18 -17 -17 -17 -17 -17 -17 -17 -16 -16 -15 -15 -16 -16 -16 -15 -15
-16 -16 -16 -16 -16 -17 -16 -16 -16 -16 -16 -15 -16 -15 -15 -15 -15 -15 -16 -16 -16 -17 -16 -17 -17 -17 -17 -18 -18 -18 -18 -18 -17 -18 -18 -18 -18 -18 -18 -17 -17 -17 -17 -17 -16 -17 -16 -16 -15 -15 -16 -16 -15 -15
-16 -16 -16 -16 -16 -16 -17 -18 -17 -16 -17 -16 -16 -16 -16 -16 -16 -16 -16 -17 -17 -17 -17 -17 -17 -18 -18 -18 -18 -18 -18 -18 -18 -19 -18 -18 -19 -18 -18 -18 -17 -17 -17 -17 -17 -16 -16 -16 -16 -16 -15 -15 -15 -15
-16 -16 -16 -16 -16 -16 -17 -18 -17 -17 -16 -16 -16 -16 -16 -16 -16 -16 -17 -17 -17 -17 -17 -18 -18 -18 -18 -18 -18 -19 -19 -19 -19 -19 -19 -19 -19 -19 -18 -18 -18 -17 -17 -17 -17 -17 -17 -16 -16 -16 -15 -15 -15 -15
-16 -16 -16 -16 -17 -17 -17 -17 -17 -17 -17 -17 -16 -17 -17 -17 -17 -17 -17 -17 -17 -17 -18 -18 -18 -19 -19 -19 -19 -19 -19 -19 -20 -20 -20 -20 -19 -19 -19 -18 -18 -18 -17 -17 -17 -17 -16 -16 -15 -15 -15 -15 -15 -15
-16 -16 -16 -16 -16 -17 -16 -17 -17 -17 -17 -17 -17 -17 -17 -17 -17 -17 -17 -17 -18 -18 -18 -18 -18 -19 -19 -19 -19 -19 -20 -20 -20 -20 -20 -20 -20 -19 -19 -19 -18 -17 -17 -17 -17 -16 -16 -16 -15 -15 -15 -15 -15 -15
-16 -16 -16 -16 -16 -16 -17 -17 -17 -17 -17 -17 -17 -17 -17 -17 -18 -18 -18 -18 -18 -18 -18 -18 -19 -19 -19 -19 -19 -19 -20 -20 -20 -20 -20 -20 -20 -19 -19 -18 -18 -17 -17 -17 -17 -16 -16 -16 -16 -15 -15 -15 -16 -16
-16 -16 -16 -16 -16 -17 -17 -17 -17 -17 -17 -17 -17 -17 -17 -17 -18 -18 -18 -18 -18 -18 -18 -19 -19 -19 -19 -19 -19 -19 -19 -20 -20 -20 -20 -20 -20 -19 -19 -19 -18 -17 -17 -17 -17 -16 -15 -16 -16 -16 -16 -16 -16 -17
-17 -16 -16 -17 -17 -17 -17 -17 -17 -17 -18 -18 -17 -17 -18 -18 -18 -18 -18 -18 -18 -19 -19 -19 -19 -19 -19 -19 -19 -20 -20 -20 -20 -20 -20 -20 -20 -20 -19 -19 -18 -17 -17 -17 -17 -16 -16 -15 -16 -16 -16 -16 -16 -16
-17 -16 -17 -17 -18 -17 -17 -17 -18 -18 -18 -18 -17 -18 -18 -18 -18 -18 -18 -18 -18 -19 -19 -19 -19 -20 -19 -19 -20 -20 -20 -20 -20 -20 -20 -19 -19 -19 -19 -19 -18 -18 -18 -17 -17 -17 -16 -16 -16 -16 -16 -16 -16 -16
-17 -17 -17 -18 -18 -17 -17 -18 -18 -18 -18 -18 -18 -18 -18 -18 -18 -18 -18 -18 -19 -19 -19 -19 -20 -20 -20 -20 -20 -20 -20 -20 -20 -20 -19 -19 -19 -19 -19 -19 -18 -18 -18 -17 -17 -17 -17 -17 -16 -16 -16 -16 -16 -16
-17 -17 -18 -18 -18 -18 -18 -18 -18 -18 -18 -18 -18 -18 -18 -18 -18 -18 -19 -19 -19 -19 -19 -19 -19 -19 -20 -20 -20 -20 -20 -20 -20 -20 -20 -19 -19 -19 -19 -19 -19 -18 -18 -18 -18 -17 -17 -17 -17 -17 -16 -16 -16 -16
-17 -18 -18 -18 -18 -18 -18 -18 -18 -18 -18 -18 -18 -18 -18 -18 -18 -19 -19 -19 -19 -19 -19 -19 -19 -19 -20 -20 -20 -20 -20 -20 -20 -20 -20 -20 -19 -19 -19 -19 -18 -18 -18 -18 -18 -17 -17 -17 -17 -17 -17 -17 -16 -16
-18 -17 -18 -18 -18 -18 -18 -18 -18 -18 -18 -18 -18 -18 -18 -18 -18 -19 -19 -19 -19 -19 -19 -19 -19 -20 -20 -20 -20 -21 -21 -21 -20 -20 -20 -20 -19 -19 -19 -19 -19 -18 -18 -18 -18 -18 -17 -17 -17 -17 -17 -17 -17 -16
-17 -18 -18 -18 -18 -18 -18 -18 -18 -18 -18 -18 -18 -18 -18 -18 -18 -19 -19 -18 -18 -19 -19 -19 -20 -20 -20 -20 -21 -21 -21 -21 -20 -21 -21 -20 -20 -19 -19 -19 -19 -19 -19 -18 -18 -18 -18 -18 -17 -17 -17 -17 -17 -17
-18 -18 -18 -18 -18 -18 -18 -18 -18 -18 -18 -18 -19 -19 -18 -18 -18 -18 -18 -19 -19 -19 -19 -19 -19 -19 -19 -20 -20 -20 -20 -20 -20 -20 -21 -21 -20 -20 -20 -20 -20 -19 -19 -19 -19 -18 -18 -18 -18 -17 -17 -17 -17 -17
-18 -18 -18 -18 -18 -18 -18 -18 -18 -18 -18 -18 -18 -18 -18 -18 -18 -19 -19 -19 -19 -19 -19 -19 -19 -20 -20 -20 -20 -21 -21 -21 -20 -20 -20 -20 -20 -20 -20 -20 -20 -19 -19 -19 -19 -19 -18 -18 -18 -18 -17 -17 -17 -17
-18 -17 -18 -18 -18 -18 -18 -18 -18 -18 -18 -18 -18 -18 -18 -18 -19 -19 -19 -19 -19 -20 -20 -20 -20 -20 -20 -20 -21 -21 -21 -21 -21 -20 -20 -20 -20 -20 -20 -20 -20 -20 -19 -19 -19 -19 -19 -19 -19 -19 -19 -19 -19 -18
-17 -17 -17 -18 -18 -18 -18 -18 -18 -18 -18 -18 -18 -18 -18 -18 -18 -18 -19 -19 -19 -19 -19 -19 -19 -20 -20 -20 -20 -21 -21 -21 -20 -20 -20 -20 -20 -20 -20 -20 -19 -19 -19 -19 -19 -19 -19 -19 -19 -19 -19 -19 -19 -20
-17 -17 -17 -17 -18 -18 -18 -18 -18 -18 -18 -18 -18 -18 -18 -18 -18 -18 -18 -19 -19 -19 -19 -19 -19 -20 -20 -20 -20 -20 -20 -20 -20 -20 -20 -20 -20 -20 -19 -19 -19 -19 -19 -19 -19 -19 -18 -19 -19 -19 -19 -19 -20 -21
-17 -17 -18 -18 -18 -18 -18 -18 -18 -18 -18 -18 -18 -18 -18 -18 -18 -18 -18 -18 -18 -18 -18 -19 -19 -19 -19 -19 -19 -19 -19 -19 -19 -19 -19 -19 -20 -20 -19 -19 -19 -19 -19 -18 -18 -18 -18 -19 -19 -19 -20 -21 -22 -22
-17 -18 -18 -18 -18 -18 -18 -18 -18 -18 -18 -18 -18 -18 -18 -18 -18 -17 -17 -18 -18 -18 -18 -18 -18 -18 -18 -18 -19 -19 -19 -19 -19 -19 -19 -19 -19 -19 -19 -19 -19 -19 -19 -19 -19 -19 -19 -19 -19 -20 -20 -20 -21 -22
-17 -17 -18 -18 -18 -18 -18 -18 -18 -18 -18 -18 -18 -18 -17 -17 -17 -17 -17 -17 -17 -17 -18 -18 -17 -18 -18 -18 -18 -18 -19 -19 -19 -19 -19 -19 -19 -19 -19 -19 -19 -19 -19 -19 -19 -19 -19 -19 -19 -20 -20 -20 -21 -21
-17 -17 -18 -18 -18 -18 -18 -18 -18 -18 -18 -18 -17 -17 -17 -17 -17 -17 -17 -17 -17 -17 -17 -18 -18 -17 -18 -18 -18 -18 -18 -18 -18 -18 -18 -18 -18 -18 -18 -18 -19 -19 -19 -18 -19 -19 -19 -19 -19 -19 -20 -20 -20 -20
-16 -16 -17 -16 -16 -17 -17 -17 -17 -17 -17 -17 -17 -17 -17 -17 -17 -17 -17 -17 -17 -17 -17 -17 -17 -17 -18 -18 -18 -18 -18 -18 -18 -18 -18 -18 -18 -18 -18 -18 -18 -18 -18 -18 -18 -18 -19 -19 -19 -19 -19 -19 -20 -20
Height
5770 5770 5769 5769 5769 5768 5767 5766 5764 5762 5761 5759 5759 5760 5761 5761 5762 5763 5765 5766 5767 5768 5769 5769 5770 5771 5771 5771 5771 5771 5771 5770 5770 5769 5768 5768 5766 5765 5764 5762 5762 5762 5761 5762 5761 5760 5762 5768 5768 5767 5765 5764 5763 5764
5763 5762 5762 5762 5761 5761 5760 5758 5756 5754 5752 5751 5752 5753 5754 5755 5756 5757 5758 5758 5759 5760 5761 5761 5761 5761 5761 5761 5761 5760 5759 5758 5757 5756 5755 5752 5752 5750 5749 5748 5746 5746 5744 5746 5745 5749 5748 5750 5749 5747 5747 5748 5746 5747
5754 5754 5754 5754 5753 5753 5752 5751 5750 5748 5747 5746 5747 5747 5748 5749 5750 5751 5751 5752 5752 5752 5753 5753 5752 5751 5750 5749 5749 5748 5746 5744 5743 5741 5740 5738 5737 5736 5735 5735 5734 5732 5731 5731 5732 5733 5732 5732 5734 5733 5732 5732 5731 5731
5745 5744 5744 5745 5744 5745 5745 5744 5744 5742 5742 5742 5742 5742 5742 5743 5744 5745 5744 5745 5745 5744 5743 5743 5743 5741 5739 5738 5737 5735 5733 5731 5729 5727 5725 5724 5722 5722 5722 5721 5721 5718 5716 5717 5718 5718 5718 5718 5717 5717 5719 5719 5718 5716
5735 5735 5735 5735 5735 5736 5736 5737 5737 5736 5737 5737 5737 5737 5737 5737 5737 5737 5737 5737 5736 5738 5735 5733 5732 5731 5728 5726 5724 5722 5720 5718 5716 5714 5712 5711 5709 5709 5709 5709 5708 5701 5703 5704 5706 5704 5703 5705 5704 5703 5703 5704 5703 5703
5725 5725 5725 5726 5726 5727 5728 5729 5730 5730 5730 5731 5731 5731 5731 5730 5729 5729 5729 5729 5728 5727 5726 5724 5723 5720 5718 5715 5713 5710 5708 5705 5703 5702 5701 5700 5697 5697 5698 5700 5697 5692 5692 5691 5692 5690 5689 5691 5690 5690 5689 5689 5689 5689
5714 5714 5715 5716 5716 5717 5719 5720 5721 5722 5723 5723 5723 5723 5723 5722 5722 5722 5722 5720 5719 5717 5716 5714 5712 5710 5708 5705 5702 5700 5698 5696 5695 5693 5693 5690 5688 5686 5687 5687 5684 5684 5683 5681 5679 5678 5678 5676 5676 5677 5675 5675 5675 5676
5705 5705 5706 5706 5706 5708 5710 5712 5712 5714 5715 5716 5716 5716 5715 5715 5715 5714 5713 5712 5711 5710 5708 5705 5703 5702 5699 5697 5696 5693 5691 5689 5687 5685 5683 5681 5679 5677 5677 5675 5674 5674 5673 5671 5669 5667 5665 5665 5663 5663 5662 5662 5663 5663
5698 5697 5697 5697 5697 5699 5700 5703 5704 5706 5707 5708 5708 5708 5708 5708 5707 5707 5706 5705 5704 5704 5700 5699 5697 5696 5694 5691 5689 5688 5685 5682 5681 5678 5675 5673 5670 5668 5667 5666 5665 5663 5662 5661 5660 5656 5654 5652 5652 5651 5649 5650 5651 5653
5688 5688 5688 5688 5688 5690 5691 5694 5696 5698 5699 5700 5702 5702 5701 5701 5701 5701 5699 5699 5698 5696 5695 5694 5692 5690 5689 5686 5683 5682 5679 5677 5673 5670 5666 5664 5663 5660 5659 5657 5656 5655 5653 5651 5649 5647 5643 5640 5639 5639 5638 5639 5640 5643
5682 5681 5680 5678 5680 5681 5683 5684 5687 5690 5691 5692 5693 5694 5695 5695 5695 5694 5695 5695 5693 5692 5691 5689 5687 5685 5682 5681 5678 5676 5672 5669 5665 5663 5659 5655 5654 5651 5651 5649 5647 5646 5644 5642 5639 5637 5634 5631 5629 5626 5626 5627 5629 5633
5677 5675 5672 5671 5672 5673 5675 5676 5679 5682 5684 5685 5687 5689 5690 5690 5690 5691 5690 5690 5689 5688 5686 5684 5682 5679 5677 5675 5673 5669 5666 5662 5657 5654 5650 5647 5646 5644 5643 5642 5640 5638 5637 5635 5631 5629 5626 5622 5619 5616 5616 5616 5618 5621
5672 5668 5666 5665 5666 5668 5668 5670 5673 5675 5677 5681 5683 5684 5685 5686 5687 5686 5686 5685 5684 5683 5681 5679 5677 5675 5671 5670 5667 5663 5658 5654 5649 5645 5642 5640 5639 5638 5637 5636 5635 5633 5631 5628 5625 5622 5618 5613 5609 5607 5607 5607 5608 5610
5666 5663 5660 5660 5661 5663 5664 5667 5669 5672 5675 5677 5679 5680 5682 5682 5682 5682 5682 5681 5680 5678 5676 5675 5672 5670 5667 5664 5659 5655 5652 5648 5643 5640 5638 5636 5634 5633 5632 5631 5630 5629 5626 5623 5620 5616 5612 5607 5602 5599 5596 5595 5596 5598
5662 5660 5659 5659 5659 5661 5663 5665 5668 5670 5672 5674 5676 5678 5678 5679 5679 5678 5678 5677 5675 5673 5671 5670 5667 5664 5661 5658 5654 5650 5647 5643 5639 5637 5634 5632 5629 5628 5628 5626 5625 5624 5621 5619 5616 5613 5608 5603 5598 5594 5589 5588 5590 5593
5660 5658 5657 5657 5658 5659 5662 5664 5666 5668 5670 5672 5674 5675 5675 5675 5675 5674 5673 5672 5670 5668 5666 5664 5661 5658 5656 5653 5649 5646 5643 5638 5635 5632 5630 5628 5626 5625 5624 5622 5621 5618 5617 5616 5614 5611 5606 5603 5599 5595 5593 5592 5593 5594
5657 5656 5655 5656 5657 5659 5660 5663 5665 5666 5668 5670 5671 5672 5672 5671 5671 5670 5669 5667 5666 5664 5661 5658 5655 5652 5649 5647 5644 5641 5638 5634 5631 5628 5627 5625 5623 5621 5620 5619 5618 5617 5616 5615 5613 5609 5606 5600 5598 5597 5597 5596 5595 5597
5653 5653 5653 5654 5655 5657 5659 5661 5663 5665 5666 5668 5669 5669 5668 5668 5667 5666 5664 5662 5660 5658 5655 5652 5648 5647 5643 5642 5639 5636 5632 5629 5626 5624 5623 5621 5619 5618 5617 5616 5615 5615 5614 5614 5612 5608 5606 5603 5601 5599 5597 5598 5597 5596
5650 5650 5650 5652 5654 5656 5658 5660 5662 5663 5665 5665 5666 5666 5665 5664 5663 5661 5659 5657 5655 5653 5650 5646 5643 5640 5638 5635 5633 5630 5627 5624 5621 5619 5618 5617 5616 5615 5614 5614 5613 5612 5612 5612 5610 5609 5607 5605 5603 5602 5600 5599 5599 5599
5646 5647 5650 5652 5654 5656 5657 5659 5660 5661 5663 5663 5663 5663 5662 5661 5659 5657 5655 5652 5650 5647 5643 5639 5635 5633 5631 5628 5627 5624 5621 5619 5616 5614 5613 5612 5612 5611 5611 5611 5611 5610 5610 5610 5610 5609 5608 5607 5606 5605 5603 5602 5602 5602
5644 5647 5649 5651 5653 5654 5656 5657 5659 5660 5661 5660 5661 5660 5659 5657 5655 5652 5650 5647 5645 5642 5638 5634 5630 5628 5626 5623 5620 5618 5616 5614 5612 5610 5609 5608 5607 5607 5607 5608 5608 5608 5608 5609 5610 5609 5608 5607 5607 5606 5606 5605 5606 5606
5645 5647 5649 5651 5653 5654 5655 5656 5657 5658 5659 5658 5657 5656 5655 5654 5652 5649 5646 5642 5640 5636 5633 5629 5626 5624 5621 5618 5616 5613 5611 5609 5608 5606 5605 5604 5604 5604 5603 5603 5604 5605 5606 5606 5607 5608 5608 5608 5607 5606 5606 5606 5606 5608
5646 5648 5650 5652 5653 5654 5656 5656 5657 5657 5657 5657 5655 5654 5653 5651 5649 5646 5642 5639 5636 5632 5629 5626 5623 5620 5617 5614 5612 5610 5608 5607 5604 5601 5600 5601 5601 5601 5600 5599 5600 5601 5602 5603 5604 5605 5606 5606 5606 5606 5606 5606 5607 5608
5647 5649 5651 5652 5654 5655 5656 5656 5657 5657 5656 5656 5655 5653 5651 5649 5647 5643 5639 5637 5634 5630 5627 5624 5621 5618 5614 5611 5609 5608 5606 5604 5602 5600 5599 5598 5598 5598 5598 5598 5598 5598 5599 5599 5600 5601 5601 5603 5604 5604 5604 5604 5605 5607
5650 5651 5653 5653 5654 5655 5656 5656 5656 5656 5656 5655 5654 5652 5650 5648 5645 5641 5638 5635 5631 5628 5625 5622 5619 5616 5615 5613 5610 5608 5607 5605 5602 5601 5599 5598 5597 5597 5597 5597 5597 5597 5597 5598 5598 5598 5598 5598 5598 5599 5600 5600 5600 5599
5649 5651 5652 5653 5654 5655 5656 5656 5656 5656 5655 5655 5654 5653 5650 5647 5644 5642 5638 5635 5631 5627 5624 5621 5619 5617 5615 5613 5611 5610 5609 5607 5605 5603 5601 5599 5598 5598 5597 5597 5597 5596 5596 5596 5596 5596 5596 5595 5595 5595 5594 5594 5593 5593
5650 5651 5652 5653 5654 5654 5655 5655 5655 5655 5655 5654 5654 5653 5650 5647 5645 5642 5639 5636 5632 5629 5626 5624 5622 5620 5619 5617 5615 5613 5611 5610 5609 5607 5604 5603 5601 5600 5599 5598 5597 5596 5595 5595 5595 5595 5594 5593 5593 5592 5590 5587 5586 5584
5650 5651 5652 5653 5654 5654 5655 5655 5655 5654 5654 5654 5653 5652 5650 5648 5646 5643 5641 5638 5635 5633 5630 5628 5627 5625 5623 5621 5620 5617 5615 5614 5612 5610 5608 5606 5605 5604 5603 5601 5600 5599 5598 5597 5596 5595 5594 5593 5592 5590 5587 5583 5578 5574
5650 5650 5652 5652 5653 5653 5653 5654 5654 5654 5654 5652 5652 5652 5650 5648 5646 5645 5643 5641 5638 5637 5635 5633 5631 5629 5627 5626 5625 5623 5621 5618 5616 5615 5613 5612 5610 5610 5608 5605 5603 5602 5601 5599 5598 5596 5595 5593 5591 5589 5585 5577 5572 5568
5649 5650 5650 5651 5651 5651 5651 5652 5652 5652 5652 5651 5651 5651 5650 5648 5647 5646 5644 5643 5641 5640 5638 5637 5634 5632 5631 5630 5629 5627 5626 5624 5622 5620 5619 5617 5616 5614 5612 5611 5609 5606 5605 5603 5601 5599 5597 5595 5592 5588 5584 5578 5573 5570
5647 5647 5648 5648 5648 5649 5649 5649 5649 5650 5650 5650 5649 5650 5649 5649 5647 5646 5646 5645 5643 5642 5640 5639 5637 5635 5634 5633 5632 5631 5629 5628 5627 5625 5623 5621 5619 5617 5616 5614 5613 5611 5609 5607 5605 5602 5600 5598 5594 5590 5586 5581 5577 5573
5645 5646 5646 5645 5645 5645 5645 5646 5647 5647 5647 5648 5648 5649 5649 5649 5648 5647 5647 5646 5644 5643 5642 5640 5639 5638 5636 5634 5634 5633 5632 5631 5630 5628 5626 5624 5622 5620 5619 5618 5616 5614 5612 5610 5607 5605 5603 5600 5597 5594 5591 5587 5583 5579
5643 5644 5643 5643 5644 5644 5644 5644 5645 5645 5646 5647 5648 5648 5648 5649 5648 5648 5647 5647 5646 5644 5643 5642 5640 5640 5638 5637 5637 5636 5635 5633 5632 5630 5628 5627 5625 5623 5622 5620 5618 5616 5614 5612 5610 5608 5605 5603 5601 5598 5595 5592 5589 5586
Wind_Speed
25 25 25 25 24 24 25 27 27 27 27 27 26 24 24 22 22 23 23 25 27 29 31 32 32 32 33 33 34 34 34 35 37 38 39 40 42 44 45 46 45 45 46 45 46 48 48 43 44 47 50 51 54 55
28 27 27 27 26 25 25 25 25 24 23 21 21 20 19 19 20 21 19 19 20 23 25 27 28 29 31 32 33 34 36 37 38 39 40 42 42 43 43 43 45 46 47 46 48 45 45 45 47 48 48 47 49 50
29 30 31 31 29 27 24 23 22 19 16 13 16 17 17 18 19 19 21 19 21 24 26 27 28 30 32 34 35 35 36 38 40 40 40 41 40 41 41 41 42 44 46 47 45 45 46 47 47 48 50 49 48 49
28 30 29 28 28 27 25 22 20 17 17 16 15 16 17 17 17 18 20 23 24 26 28 31 32 34 34 35 37 38 38 39 41 40 39 38 38 39 39 40 41 41 42 42 45 46 46 46 47 48 47 46 47 48
31 30 28 28 29 27 25 23 21 18 18 18 16 17 18 19 21 21 22 23 24 26 30 32 32 33 35 36 37 38 39 39 38 37 37 36 36 38 36 35 35 37 40 43 42 43 43 41 40 43 43 41 43 46
32 31 30 29 28 27 26 26 23 21 21 21 21 21 20 20 21 23 25 25 25 27 28 31 31 31 34 35 35 35 34 34 34 32 32 31 33 34 33 31 23 29 32 33 33 34 34 35 37 38 40 41 41 43
32 31 29 29 28 26 25 27 25 24 23 23 22 22 21 21 22 23 25 25 26 28 27 28 28 27 26 26 26 26 26 27 28 29 29 30 31 32 32 30 29 28 28 30 31 31 31 33 34 36 39 40 43 44
26 26 28 28 27 26 27 25 24 23 23 22 21 22 21 21 24 24 25 24 23 24 22 21 20 19 20 18 18 19 21 22 24 26 26 27 28 30 29 30 30 29 30 30 31 33 32 30 33 34 35 35 36 40
27 29 26 29 27 26 25 24 23 22 22 22 22 22 23 22 21 19 20 19 19 16 14 15 16 17 18 21 22 22 23 25 25 25 25 25 25 26 26 26 25 26 27 29 31 33 34 34 31 32 35 33 32 31
24 20 25 31 30 25 25 24 24 23 21 20 22 23 19 17 17 16 15 13 11 12 14 16 17 19 22 23 22 19 18 22 25 26 28 29 28 27 26 24 24 23 25 26 28 29 32 34 34 31 32 36 34 29
23 23 31 25 18 23 25 29 27 27 26 25 24 16 14 14 13 11 9 9 11 13 16 18 19 20 20 19 18 23 30 31 28 26 23 25 24 27 27 26 26 25 24 24 27 24 27 31 31 30 27 30 36 34
24 24 22 19 20 24 20 17 21 23 21 15 10 11 12 11 8 8 9 10 12 15 18 19 19 21 20 21 27 31 28 29 27 27 23 19 20 20 22 24 26 26 28 27 23 27 29 29 29 25 23 21 27 32
25 25 23 21 18 17 14 12 12 12 8 9 10 9 8 7 8 8 9 12 15 16 18 18 18 20 22 23 25 26 29 27 29 25 18 15 13 16 18 20 23 22 23 19 22 24 24 25 23 25 25 26 28 27
25 20 16 14 11 11 8 9 10 9 9 8 7 7 7 8 8 10 12 14 16 17 17 14 21 22 23 25 25 27 29 27 24 19 14 17 20 18 14 15 14 16 14 16 19 22 20 18 18 21 24 26 25 22
21 16 13 10 6 7 10 10 8 8 8 8 8 7 7 8 9 11 13 16 15 17 14 18 21 21 19 21 22 25 26 25 22 21 16 16 15 15 15 18 15 10 15 13 15 19 18 19 16 13 10 7 12 15
17 12 9 8 7 10 8 7 7 8 8 9 8 6 8 9 10 12 15 17 16 18 19 21 25 25 22 21 20 24 26 23 21 18 17 13 14 14 17 18 10 10 9 13 16 18 13 10 15 10 5 2 2 5
15 12 10 9 9 9 7 8 8 8 8 8 7 6 9 11 12 13 15 17 18 18 20 24 27 24 25 24 23 23 25 24 21 16 17 13 14 15 16 16 12 8 9 12 12 10 8 12 14 12 8 7 6 5
12 11 11 11 11 8 9 8 8 7 7 7 6 7 10 11 14 16 16 19 16 17 21 28 27 24 26 23 23 23 22 22 20 18 15 16 15 15 16 15 14 5 6 9 13 11 7 14 12 10 9 7 7 8
13 11 10 12 9 9 7 8 8 7 6 6 6 8 10 13 15 16 17 18 19 19 25 26 25 24 24 23 21 21 21 22 20 19 17 13 13 14 14 13 14 7 1 1 6 10 13 15 10 4 4 6 7 9
13 11 12 8 8 7 7 8 7 7 6 7 8 9 11 14 16 19 18 19 18 19 26 28 25 24 23 18 18 18 18 19 18 17 16 14 13 13 12 11 11 12 5 7 9 10 12 10 11 12 11 6 5 6
11 11 9 8 7 6 7 6 6 7 8 8 10 10 12 15 17 18 20 22 21 25 26 22 17 19 23 24 21 18 16 17 16 15 12 11 11 13 13 12 11 11 12 11 8 7 8 8 5 5 7 9 9 7
11 9 8 7 5 5 5 4 4 4 5 7 9 11 11 10 11 16 16 17 19 21 22 21 20 20 22 21 17 15 16 17 16 16 14 11 9 10 13 13 11 12 12 13 12 10 9 7 7 8 5 4 3 4
10 9 7 6 4 3 2 2 1 1 3 7 4 6 6 9 16 19 19 18 19 20 20 19 19 18 17 14 12 15 16 16 13 11 8 8 8 8 9 12 12 12 11 12 13 12 10 10 10 10 9 9 8 6
10 8 6 6 4 4 3 1 2 3 4 5 8 12 12 11 15 15 15 15 16 16 15 13 12 12 13 14 13 10 8 10 11 10 8 5 4 4 6 7 9 11 12 11 12 13 14 14 13 14 15 14 14 14
8 8 7 7 5 3 2 1 3 4 5 8 11 8 7 11 20 19 17 16 15 14 12 10 10 10 10 8 7 7 9 11 11 9 7 7 5 3 3 5 5 6 6 7 8 10 12 15 17 18 19 21 23 23
8 8 9 8 5 2 1 0 3 3 5 6 9 12 12 16 20 17 16 14 13 12 10 11 10 9 11 10 9 9 10 12 13 12 10 9 7 5 4 3 2 2 4 6 8 10 12 13 14 15 16 17 19 23
7 8 7 6 5 4 3 2 4 3 4 6 9 10 14 18 14 13 12 12 13 14 15 16 16 16 15 15 15 15 16 15 15 15 15 16 15 12 10 7 6 5 5 3 3 4 6 8 9 11 14 18 20 21
7 7 7 6 4 4 4 4 3 5 5 7 8 11 12 13 13 13 13 12 13 15 16 16 15 16 17 16 15 16 17 18 19 19 19 19 18 16 15 14 13 12 9 9 9 8 6 5 4 6 13 22 25 23
7 8 6 5 6 7 6 4 4 5 6 8 7 8 9 10 11 11 13 13 13 14 15 15 16 18 19 18 17 18 18 20 21 20 19 19 18 17 18 20 22 21 18 17 15 12 10 9 8 8 14 22 12 13
5 6 6 6 7 7 6 6 5 5 5 7 9 4 6 8 9 10 11 11 11 11 13 14 15 16 16 16 16 16 16 16 16 17 17 16 17 16 16 16 17 18 17 18 19 20 20 20 19 14 16 19 15 9
7 7 7 7 8 8 7 9 8 8 8 6 3 0 2 4 6 8 9 9 9 10 10 10 11 12 13 13 13 13 13 13 12 12 13 14 15 14 14 14 15 15 16 16 17 18 18 19 22 24 24 22 20 16
10 9 7 5 6 5 9 11 10 10 7 3 4 4 2 2 3 5 7 8 9 9 9 9 9 9 10 12 11 11 11 11 11 11 12 12 12 11 11 11 11 12 13 14 15 16 17 18 19 20 22 25 26 25
6 4 2 2 3 3 2 0 3 5 4 5 4 2 1 1 2 3 5 7 9 9 9 9 9 8 10 9 8 8 9 9 10 10 11 11 11 11 11 11 12 12 11 12 14 14 15 16 17 18 19 21 21 22
Wind_Direction
272 273 275 277 281 287 291 296 295 292 289 280 273 269 265 261 259 258 259 261 262 265 268 267 265 266 266 266 267 268 269 270 270 270 271 271 271 273 274 273 271 267 265 266 266 266 267 270 269 268 267 269 268 266
274 275 275 276 279 283 288 295 299 296 291 275 268 262 260 258 260 264 266 268 268 272 272 270 270 271 271 271 271 271 272 272 273 274 275 276 277 276 274 271 270 269 268 267 266 269 272 274 274 271 271 270 268 264
276 277 275 274 276 276 280 290 295 291 285 275 270 264 266 270 268 258 268 266 273 276 275 277 278 280 279 279 279 279 278 279 279 280 280 278 276 274 271 268 266 266 265 268 269 270 269 269 270 269 268 268 270 267
278 275 275 277 275 273 272 280 282 281 275 273 276 277 269 269 266 272 273 267 270 275 278 277 278 280 280 281 282 282 282 281 282 282 280 278 275 272 271 271 270 270 268 267 265 267 268 269 270 270 269 267 268 270
283 279 270 271 269 271 267 270 274 271 266 270 277 274 272 270 271 276 279 278 279 279 282 283 284 282 282 284 285 285 284 283 282 282 280 278 275 273 272 272 273 270 269 270 270 268 269 270 269 269 267 264 263 262
281 274 269 268 267 266 265 264 261 268 270 268 270 272 273 276 278 280 279 283 286 287 284 284 285 286 286 288 288 288 287 287 287 285 282 279 275 275 273 270 269 271 273 274 272 272 271 269 267 266 264 264 260 260
279 270 261 266 266 261 264 259 259 264 266 267 269 273 275 279 282 286 288 291 290 290 289 289 289 291 292 292 292 293 292 290 288 284 282 279 277 276 275 272 270 266 273 276 275 273 272 271 268 268 265 262 259 258
278 273 262 275 256 254 256 258 254 259 266 268 272 275 277 284 287 289 290 289 290 290 292 297 299 303 305 310 309 306 304 300 295 293 289 285 281 278 278 276 277 271 267 271 276 278 279 277 271 262 262 262 258 257
284 279 266 264 260 254 255 254 254 256 261 266 271 274 282 284 287 288 288 289 292 297 304 307 310 310 308 305 305 304 303 301 301 298 294 293 291 286 281 281 286 279 273 269 273 279 280 282 280 269 257 257 257 256
287 265 270 263 267 261 250 246 246 252 258 264 269 282 279 280 282 285 286 290 298 300 306 309 309 305 306 305 305 310 319 317 310 303 294 285 285 285 286 288 286 285 282 280 279 281 280 284 285 276 258 252 253 251
287 278 292 263 263 261 251 247 247 248 251 263 271 268 272 275 278 281 284 290 296 303 308 310 309 310 308 313 318 323 321 316 311 308 302 291 286 275 278 285 286 283 284 282 287 284 288 283 280 278 271 252 249 250
312 293 292 287 283 271 258 266 263 262 265 254 251 259 262 267 262 279 282 289 295 303 313 310 311 310 306 303 308 315 316 320 309 306 299 295 285 278 274 278 279 280 287 285 295 284 292 294 288 281 269 257 243 244
309 298 294 285 270 244 236 237 248 233 223 237 241 250 255 251 272 273 277 284 297 310 312 315 315 311 308 316 318 318 325 329 324 306 292 282 262 278 280 278 281 288 294 303 309 313 314 308 295 289 276 266 261 257
308 303 292 282 259 242 223 230 219 207 222 227 238 233 235 266 273 272 283 290 304 308 306 313 317 318 314 322 330 329 329 330 328 313 289 301 281 302 308 303 290 282 302 316 306 317 329 326 312 301 281 263 265 258
312 303 295 273 253 230 213 201 207 211 218 223 210 222 260 282 279 279 289 300 305 301 293 310 322 320 314 320 328 328 327 329 328 319 312 303 308 280 297 294 294 296 325 315 316 326 337 351 354 345 334 272 232 221
304 307 290 273 237 204 199 209 208 216 222 207 210 245 277 282 278 286 296 300 299 301 304 301 312 315 314 315 321 326 327 318 321 317 317 306 293 289 294 294 287 17 8 333 336 341 355 359 14 6 17 62 181 208
297 290 288 263 209 196 206 208 217 218 209 210 234 266 277 279 284 293 301 304 302 303 303 306 310 308 311 316 314 318 320 322 314 310 312 302 288 289 296 296 294 36 41 356 359 2 4 294 38 26 25 43 47 29
290 285 274 235 196 200 207 215 214 214 213 230 257 282 283 280 288 301 307 309 309 305 301 303 299 302 302 307 306 312 315 319 312 306 306 300 294 287 300 298 301 322 34 18 16 9 17 9 352 329 352 354 0 356
287 285 235 197 194 209 215 216 216 225 226 247 272 279 277 287 299 303 304 302 300 305 311 304 295 297 296 300 307 307 306 312 312 302 296 289 292 288 297 292 296 295 81 144 324 3 20 29 14 22 9 346 356 12
280 235 190 181 203 216 223 220 225 234 240 265 278 290 297 304 306 306 307 301 295 309 325 321 297 294 298 300 309 302 306 310 312 304 293 285 281 289 294 294 291 297 307 299 310 304 322 353 19 34 52 27 332 331
208 168 172 192 205 214 222 234 246 255 265 280 299 303 302 312 311 310 306 303 298 307 314 320 325 330 321 321 324 311 308 315 317 316 305 290 278 276 284 291 286 284 288 289 292 303 308 313 319 356 21 32 49 77
151 170 181 189 191 200 228 251 267 273 289 298 293 299 309 324 346 344 330 312 317 323 326 327 324 313 316 319 318 318 323 321 312 308 305 305 294 284 271 270 275 271 268 278 289 289 285 295 296 295 296 322 11 69
169 169 167 174 179 178 169 171 192 302 339 1 358 327 293 304 323 328 328 330 325 322 320 319 321 325 322 320 326 327 319 314 328 332 317 298 295 301 294 270 263 264 263 268 278 286 291 289 288 285 288 290 288 289
158 162 165 157 147 139 136 108 5 1 0 341 343 340 336 342 346 341 338 334 329 326 328 332 337 342 348 343 331 330 349 0 2 1 356 339 298 290 312 307 285 273 269 269 268 273 278 279 278 281 284 281 274 269
160 161 165 162 150 151 151 111 41 74 38 359 3 11 14 7 8 1 353 346 336 337 336 335 345 358 350 346 9 44 32 13 10 6 8 12 14 352 284 269 271 275 281 284 286 284 283 283 283 280 275 274 274 275
166 170 175 177 183 186 178 321 11 8 354 355 9 1 339 332 339 348 352 354 359 4 9 17 23 39 41 42 51 50 45 35 37 41 46 46 41 35 21 9 337 270 265 271 278 285 289 291 293 294 292 287 279 271
178 180 187 197 204 210 214 259 311 300 319 334 338 343 10 8 13 15 14 19 32 40 49 53 62 63 64 61 64 67 60 57 60 60 57 56 54 50 48 48 45 40 34 23 352 321 311 308 308 307 303 296 287 277
212 213 217 216 223 241 254 274 311 239 299 322 338 353 347 359 16 20 26 31 40 47 57 59 57 58 60 58 59 67 70 68 63 59 56 54 50 48 52 56 57 55 57 64 62 55 43 24 357 332 326 310 304 294
221 224 229 236 258 267 257 252 262 263 302 312 318 351 12 11 12 23 32 36 41 44 55 64 62 61 62 61 59 59 61 65 68 64 60 57 57 54 54 58 59 55 50 52 56 50 35 13 349 327 341 338 349 4
235 250 252 251 254 257 249 248 257 265 279 306 314 324 6 11 11 23 32 39 44 43 46 53 62 64 61 59 57 56 55 55 57 61 62 58 55 53 50 50 54 58 55 52 54 54 50 46 40 37 32 27 24 24
228 257 271 265 258 258 257 234 248 259 267 305 234 91 38 14 14 25 28 34 38 42 42 36 39 47 51 48 44 44 46 45 44 46 51 53 49 46 43 39 38 43 48 48 47 45 44 42 41 40 42 44 48 50
245 255 264 281 307 305 255 245 244 258 273 230 203 176 117 48 28 22 22 25 26 29 35 42 37 36 45 45 33 28 35 39 39 42 45 49 49 42 38 38 34 29 29 34 37 38 37 38 39 40 40 42 45 47
157 144 254 62 338 357 38 213 230 241 204 190 199 208 165 69 28 24 25 26 25 25 28 36 41 35 38 37 31 32 39 43 42 44 45 44 46 44 38 33 31 31 28 24 26 31 33 34 35 37 41 41 41 41